This is the latest recevied weather packets stored in our database for station/object N3SBK. If no packets are shown the sender has not sent any weather packets the latest 10 day(s).
| Time | Temp. | Humidity | Pressure | Rain* | Wind** | Luminosity | Snow |
|---|---|---|---|---|---|---|---|
| 1777375916 | 9.44° C | 89% | 1005.4 hPa | 1.78 mm | - | 18 W/m² | - |
| 1777375611 | 9.44° C | 88% | 1005.9 hPa | 1.78 mm | - | 18 W/m² | - |
| 1777375306 | 9.44° C | 88% | 1006.2 hPa | 0 mm | - | 16 W/m² | - |
| 1777375003 | 9.44° C | 88% | 1006.2 hPa | 1.27 mm | - | 13 W/m² | - |
| 1777374699 | 9.44° C | 88% | 1006.3 hPa | 3.05 mm | - | 7 W/m² | - |
| 1777374394 | 9.44° C | 88% | 1006.5 hPa | 3.05 mm | - | 4 W/m² | - |
| 1777374092 | 9.44° C | 88% | 1006.6 hPa | 3.05 mm | - | 3 W/m² | - |
| 1777373787 | 9.44° C | 86% | 1006.9 hPa | 3.05 mm | - | 2 W/m² | - |
| 1777373486 | 9.44° C | 86% | 1006.9 hPa | 4.32 mm | - | 2 W/m² | - |
| 1777373181 | 10° C | 85% | 1006.9 hPa | 4.83 mm | - | 1 W/m² | - |
| 1777372876 | 10° C | 83% | 1006.9 hPa | 3.05 mm | - | 1 W/m² | - |
| 1777372571 | 10° C | 82% | 1006.6 hPa | 1.27 mm | - | 1 W/m² | - |
| 1777372270 | 10° C | 81% | 1006.8 hPa | 1.78 mm | - | 1 W/m² | - |
| 1777371969 | 10.56° C | 80% | 1006.7 hPa | 1.78 mm | - | 0 W/m² | - |
| 1777371666 | 10.56° C | 79% | 1006.7 hPa | 1.78 mm | - | 0 W/m² | - |
| 1777371363 | 10.56° C | 77% | 1006.7 hPa | 1.78 mm | - | 0 W/m² | - |
| 1777371059 | 11.11° C | 76% | 1006.7 hPa | 1.27 mm | - | 0 W/m² | - |
| 1777370754 | 11.11° C | 75% | 1007.1 hPa | 1.27 mm | - | 0 W/m² | - |
| 1777370450 | 11.67° C | 71% | 1007.1 hPa | 0 mm | - | 0 W/m² | - |
| 1777370146 | 11.67° C | 69% | 1007 hPa | 0 mm | - | 0 W/m² | - |
| 1777369844 | 11.67° C | 69% | 1006.9 hPa | 0 mm | - | 0 W/m² | - |
| 1777369543 | 11.67° C | 69% | 1007 hPa | 0 mm | - | 0 W/m² | - |
| 1777369240 | 11.67° C | 71% | 1006.8 hPa | 0 mm | - | 0 W/m² | - |
| 1777368940 | 11.67° C | 70% | 1006.9 hPa | 0 mm | - | 0 W/m² | - |
| 1777368634 | 11.67° C | 68% | 1006.8 hPa | 0 mm | - | 0 W/m² | - |
* Rain latest hour (hover to see other rain measurements)
** Current wind speed in m/s (hover to see current wind gust speed)